Tracking 18850 objects as of 22-Nov-2017
HD Live streaming from Space Station
objects crossing your sky now

FENGYUN 1C DEB

Track FENGYUN 1C DEB now!
10-day predictions


NORAD ID: 32234
Int'l Code: 1999-025CWG
Perigee: 841.0 km
Apogee: 1,057.3 km
Inclination: 98.6 °
Period: 103.9 minutes
Semi major axis: 7320 km
RCS: 0.0048 m2 (small)
Launch date: May 10, 1999
Source: People's Republic of China (PRC)
Launch site: Taiyaun Space Center, China (TSC)

Note: This is SATELLITE DEBRIS
aabbcc
Your satellite tracking list
Your tracking list is empty




NASA's NSSDC Master Catalog

Two Line Element Set (TLE):
1 32234U 99025CWG 17323.35512932 +.00000499 +00000-0 +42735-3 0  9991
2 32234 098.5613 010.0633 0147704 147.4145 213.6235 13.86189360523311
Source of the keplerian elements: AFSPC